Regional Weather Roundup
Issued by NWS

Home | Current Version | Previous Version | Text Only | Print | Product List | Glossary On
Versions: 1 2 3 4 5 6 7 8 9 10 11 12 13 14 15 16 17 18 19 20 21 22 23 24 25 26 27 28 29 30 31 32 33 34 35 36 37 38 39 40 41 42 43 44 45 46 47 48 49 50
000
ASUS46 KPQR 291110
RWROR

OREGON REGIONAL WEATHER ROUNDUP
NATIONAL WEATHER SERVICE PORTLAND OR
300 AM PST THU JAN 29 2015

NOTE: "FAIR" INDICATES FEW OR NO CLOUDS BELOW 12,000 FEET WITH
NO SIGNIFICANT WEATHER AND/OR OBSTRUCTIONS TO VISIBILITY.

ORZ001>013-291200-
NORTHWEST OREGON


CITY           SKY/WX    TMP DP  RH WIND       PRES   REMARKS
ASTORIA        MOCLDY    43  41  93 CALM      30.31R FOG
NEWPORT        CLOUDY    50  46  87 NE3       30.32S
PORTLAND       CLOUDY    44  41  89 CALM      30.34S
VANCOUVER WA   CLOUDY    44  40  85 CALM      30.33F
SCAPPOOSE      FOG       46  45  96 CALM      30.33S VSB 1/4
HILLSBORO      CLOUDY    45  45 100 W3        30.32S FOG
AURORA         CLOUDY    45  42  89 N6        30.32F
MCMINNVILLE    CLOUDY    45  44  97 CALM      30.32F
SALEM          CLOUDY    47  45  93 NW3       30.30F
CORVALLIS      CLOUDY    48  46  93 NW3       30.31F
EUGENE         CLOUDY    50  48  93 CALM      30.31S FOG
$$

ORZ021-028-291200-
SOUTHWEST OREGON


CITY           SKY/WX    TMP DP  RH WIND       PRES   REMARKS
NORTH BEND     PTCLDY    46  46 100 SE3       30.29S
BROOKINGS      CLOUDY    48  48 100 CALM      30.24F
ROSEBURG       FOG       45  44  97 CALM      30.30S VSB 1/4
SEXTON SUMMIT  PTCLDY    48  29  47 E3        30.26S
MEDFORD        MOCLDY    36  35  96 CALM      30.29F FOG
$$

ORZ014>016-041-291200-
COLUMBIA GORGE


CITY           SKY/WX    TMP DP  RH WIND       PRES   REMARKS
TROUTDALE      CLOUDY    45  37  73 E25G35    30.31F
THE DALLES     CLOUDY    40  36  86 NE8       30.50R WCI  34
$$

ORZ029>031-041-044-049-050-061>064-502-503-505>511-291200-
EASTERN OREGON


CITY           SKY/WX    TMP DP  RH WIND       PRES   REMARKS
REDMOND        FOG       33  33 100 CALM      30.35F VSB 1/4
BEND           CLOUDY    36  34  93 CALM      30.36F
PRINEVILLE     FOG       37  37 100 S7        30.36S VSB 1/4 WCI  32
KLAMATH FALLS  MOCLDY    29  27  92 CALM      30.30S
LAKEVIEW       PTCLDY    34  28  80 NW6       30.32S WCI  29
HERMISTON      CLOUDY    37  35  92 NE3       30.48S FOG
PENDLETON      CLOUDY    34  33  96 E3        30.44S FOG
JOHN DAY       CLEAR     37  32  84 SE8       30.36S WCI  30
MEACHAM        PTCLDY    25  22  88 CALM      30.35F
LA GRANDE      PTCLDY    27  19  74 W5        30.39S WCI  21
BAKER CITY     CLEAR     24  23  96 CALM      30.40S FOG
BURNS          PTCLDY    29  26  89 W5        30.36S WCI  24
ROME             N/A     31  28  89 E6        30.35S WCI  25
ONTARIO        FOG       28  27  96 CALM      30.47R VSB 3/4
$$



USA.gov is the U.S. government's official web portal to all federal, state and local government web resources and services.